GW3951 Weather Reports


time (UTC)temp
C
wind
direction
speed
KPH
gust
KPH
rain 1hr
cm
rain 24hr
cm
rain mn
cm
humidity
%
barometer
mb
20260503223018 20 180 3.2 11.3 0.00 0.00 0.00 56 1017.3
20260503221523 21 198 8.0 16.1 0.00 0.00 0.00 48 1017.2
20260503220026 20 260 1.6 4.8 0.00 0.00 0.00 48 1016.9
20260503214527 20 290 3.2 14.5 0.00 0.00 0.00 46 1017.0
20260503213014 21 205 6.4 16.1 0.00 0.00 0.00 44 1016.9
20260503211520 21 260 9.7 19.3 0.00 0.00 0.00 44 1016.9
20260503210022 21 263 3.2 12.9 0.00 0.00 0.00 45 1017.1
20260503204526 20 74 4.8 6.4 0.00 0.00 0.00 47 1017.1
20260503203025 20 207 3.2 9.7 0.00 0.00 0.00 48 1017.4
20260503201514 21 232 8.0 16.1 0.00 0.00 0.00 44 1017.6
20260503200019 21 193 4.8 14.5 0.00 0.00 0.00 44 1017.8
20260503194525 21 225 3.2 14.5 0.00 0.03 0.00 44 1017.9
20260503193004 20 218 6.4 14.5 0.00 0.03 0.00 46 1018.2
20260503191511 21 227 1.6 14.5 0.00 0.05 0.00 45 1018.6
20260503190006 20 194 8.0 16.1 0.00 0.08 0.00 45 1018.9
20260503184503 20 284 4.8 14.5 0.00 0.10 0.00 46 1019.2
20260503183004 19 270 3.2 16.1 0.00 0.13 0.00 46 1019.4
20260503181506 20 32 9.7 19.3 0.00 0.23 0.00 46 1019.6
20260503180003 20 329 4.8 19.3 0.00 0.23 0.00 44 1019.7
20260503174504 20 298 4.8 14.5 0.00 0.25 0.00 48 1019.6
20260503173003 19 251 3.2 12.9 0.00 0.25 0.00 47 1019.8
20260503171504 19 242 4.8 20.9 0.00 0.25 0.00 49 1020.0
20260503081515 7 322 0.0 0.0 0.00 0.76 0.00 97 1017.4
20260503071510 8 322 0.0 0.0 0.00 0.91 0.00 97 1016.8
20260503054512 9 322 0.0 3.2 0.00 1.04 0.00 97 1016.8
20260503053023 9 322 0.0 3.2 0.00 1.07 0.00 96 1016.7
20260503051522 9 322 0.0 3.2 0.00 1.07 0.00 96 1016.6
20260503050023 10 322 0.0 1.6 0.00 1.09 0.00 96 1016.4
20260503044513 10 322 0.0 3.2 0.00 1.09 0.00 96 1016.4
20260503043032 10 322 0.0 3.2 0.00 1.12 0.00 96 1016.2
20260503041521 10 322 0.0 3.2 0.00 1.12 0.00 96 1015.9
20260503040023 10 315 0.0 3.2 0.00 1.12 0.00 96 1015.6
20260503034526 10 9 0.0 3.2 0.00 1.12 1.12 96 1015.7
20260503033020 10 292 0.0 0.0 0.00 1.12 1.12 96 1015.6
20260503031518 10 292 0.0 0.0 0.00 1.12 1.12 96 1015.2
20260503030024 10 292 0.0 0.0 0.00 1.12 1.12 96 1015.2
20260503024519 11 315 0.0 3.2 0.00 1.12 1.12 96 1014.9
20260503023009 11 315 0.0 3.2 0.00 1.12 1.12 95 1014.6
20260503021536 11 315 0.0 3.2 0.00 1.12 1.12 95 1014.4
20260503020020 11 360 1.6 4.8 0.00 1.14 1.12 95 1014.4
20260503014523 12 352 0.0 3.2 0.00 1.17 1.12 95 1014.1
20260503013012 12 352 0.0 3.2 0.00 1.17 1.12 94 1014.0
20260503011515 12 352 1.6 3.2 0.00 1.17 1.12 94 1013.9
20260503010017 12 352 1.6 6.4 0.00 1.17 1.12 94 1013.7
20260503004521 12 11 1.6 8.0 0.00 1.17 1.12 94 1013.5
20260503003028 12 57 3.2 12.9 0.00 1.17 1.12 94 1013.6
20260503001509 12 25 3.2 9.7 0.00 1.17 1.12 94 1013.3
20260503000015 12 325 3.2 8.0 0.00 1.17 1.12 94 1013.1
20260502234518 12 28 0.0 6.4 0.00 1.17 1.12 95 1013.0
20260502233022 12 342 1.6 8.0 0.00 1.17 1.12 94 1012.7
20260502231526 12 348 3.2 12.9 0.00 1.17 1.12 94 1012.5
20260502230011 12 341 3.2 9.7 0.00 1.17 1.12 94 1012.3
20260502224530 12 360 4.8 8.0 0.00 1.17 1.12 93 1012.5